Location: Brady Lake
(41.1595°N, 81.3171°W)
Time: 15:39:19
(UTC+00:00)

Daily predictions for brighter satellites

Satellite Brightness Start Highest point End
(mag) Time Altitude Azimuth Time Altitude Azimuth Time Altitude Azimuth
Cosmos 2333 Rocket 4.0 12:02:52 10° NW 12:04:04 11° NW 12:05:16 10° NNW
Cosmos 2219 Rocket 3.9 12:02:26 10° WNW 12:04:12 11° NW 12:05:59 10° NNW
Cosmos 1626 Rocket 4.5 12:01:14 10° NNW 12:05:04 28° W 12:08:52 10° SSW
Cosmos 1300 2.6 12:01:40 10° SSW 12:05:27 72° W 12:09:15 10° N
Cosmos 2228 2.9 12:01:58 10° S 12:06:13 84° W 12:10:29 10° N
Cosmos 1125 Rocket 3.9 12:01:44 10° NNW 12:07:03 69° ENE 12:12:20 10° SSE
USA 238 DEB 3.7 12:01:12 10° SSW 12:07:45 89° ESE 12:14:37 10° NE
USA 238 3.7 12:01:20 10° SSW 12:07:52 89° ESE 12:14:44 10° NE
Cosmos 372 Rocket 4.4 12:03:04 10° NNW 12:08:00 42° WSW 12:12:53 10° S
Envisat 3.7 12:06:16 10° N 12:10:44 32° WNW 12:15:11 10° SW
FengYun 1-2 T 4.4 12:06:28 10° NNE 12:12:10 88° ESE 12:17:50 10° SSW
NOAA 6 4.5 12:12:06 10° N 12:16:55 39° WNW 12:21:42 10° SW
ATLAS CENTAUR R/B 1.4 12:15:50 10° SW 12:19:21 43° NW 12:22:53 10° NNE
H-2A R/B 3.0 12:15:09 10° N 12:19:25 44° WNW 12:23:40 10° SW
Cosmos 2297 3.8 12:16:08 10° NNW 12:21:55 84° WSW 12:27:38 10° SSE
CORIOLIS 4.2 12:17:06 10° N 12:22:24 65° WNW 12:27:40 10° SSW
ATLAS 2AS CENTAUR R/B 4.3 22:47:13 10° WSW 22:54:15 33° NW 23:01:11 10° NNE
MOS 1 Rocket 4.3 22:53:21 10° NE 22:56:45 23° E 23:00:10 10° SSE
COSMOS 2455 2.9 22:53:46 10° SSW 22:59:44 68° ESE 23:05:44 10° NE
Cosmos 1818 4.1 22:55:00 10° S 23:00:03 42° ESE 23:05:10 10° NE
Cosmos 1844 Rocket 3.3 22:56:06 10° S 23:01:15 37° ESE 23:06:25 10° NE
CZ-4C R/B 4.1 22:57:42 10° W 23:01:33 20° NNW 23:05:56 10° NNE
CZ-2D R/B 4.1 23:01:56 10° SE 23:05:16 28° ENE 23:08:35 10° N
ISS -3.7 23:04:41 10° SW 23:08:03 75° SE 23:11:21 11° ENE
H-2A R/B 3.3 23:05:24 10° S 23:09:19 55° W 23:13:24 10° NNW
Aureole 2 Rocket 2.3 23:10:13 10° S 23:13:05 46° ESE 23:16:04 10° NNE
Meteor 2-10 Rocket 3.8 23:08:25 10° N 23:13:45 50° ENE 23:18:50 10° SSE
COSMO-SKYMED 1 2.8 23:09:40 10° NNE 23:13:52 47° E 23:18:02 10° S
CSL-04 DEB 4.4 23:10:16 10° NNE 23:14:27 71° ESE 23:18:29 10° S
CZ-4B R/B 3.6 23:10:10 10° S 23:15:39 71° WSW 23:21:18 10° NNW
TELKOM 3 4.1 23:18:21 10° W 23:20:30 34° NNW 23:22:18 14° NE
Cosmos 1777 Rocket 4.3 23:17:15 10° SSW 23:22:29 73° WNW 23:27:47 10° NNE
Cosmos 1538 Rocket 3.9 23:17:56 10° NNW 23:23:05 63° ENE 23:28:11 10° SSE
Cosmos 1689 Rocket 3.4 23:25:19 18° ENE 23:26:13 20° E 23:28:26 10° SSE
Lacrosse 5 2.4 23:22:51 10° NW 23:27:36 39° NE 23:31:50 13° ESE
Okean-O 3.4 23:24:37 10° SE 23:28:28 30° ENE 23:32:21 10° N
ATLAS 5 CENTAUR R/B 3.7 23:25:31 10° W 23:28:30 19° NW 23:31:46 10° N
Okean O Rocket 2.6 23:24:43 10° S 23:29:03 53° W 23:33:24 10° NNW
Cosmos 1455 2.7 23:27:09 10° N 23:30:41 35° ENE 23:34:13 10° SE
Helios 1A Rocket 4.0 23:27:59 10° ESE 23:31:18 24° ENE 23:34:37 10° NNE
Cosmos 1340 4.1 23:29:55 10° SE 23:32:30 18° E 23:32:34 18° E
Aureole 3 3.3 23:33:26 10° N 23:36:30 33° ENE 23:39:16 10° SE
NOSS 2-1 (E) 4.3 23:34:12 10° SSE 23:36:50 21° ESE 23:37:25 20° E
BREEZE-M DEB (TANK) 4.1 23:34:38 10° W 23:37:08 26° SSW 23:40:35 10° SSE
Cosmos 1602 Rocket 4.3 23:35:00 10° SSE 23:38:45 30° E 23:41:52 14° NE
Cosmos 1703 3.8 23:38:47 10° SSE 23:42:18 34° E 23:44:38 18° NE
ERS-2 2.1 23:39:14 10° NNE 23:42:50 59° ESE 23:46:25 10° S
YAOGAN 1 2.9 23:38:50 10° SE 23:42:51 40° ENE 23:46:56 10° N
CZ-4B R/B 2.0 23:39:36 10° N 23:42:55 57° WNW 23:46:09 10° SSW
H-2A R/B 4.0 23:40:00 10° N 23:43:51 30° WNW 23:47:37 10° SW
Cosmos 1892 Rocket 4.3 23:39:47 10° SSW 23:44:01 53° W 23:48:16 10° N
Meteor 2-1 Rocket 4.1 23:44:04 10° N 23:49:36 66° E 23:55:03 10° SSE
Cosmos 2263 Rocket 4.4 23:47:36 10° W 23:51:44 20° NW 23:55:53 10° N
